Location: Crescent
(42.8242°N, 73.7329°W)
Time: 08:23:41
(UTC+00:00)

Vanguard 1 Rocket - Pass Details

Date: 25 February 2026
Orbit: 653 x 4214 km, 34.3° (Epoch: 12 March)

Event Time Altitude Azimuth Distance (km) Brightness Sun altitude
Rises 17:39:15 0° 248° (WSW) 3,691 10.9 37.8°
Reaches altitude 10° 17:41:24 10° 243° (WSW) 2,989 10.6 37.7°
Maximum altitude 17:48:34 52° 169° (SSE) 1,979 10.7 37.5°
Drops below altitude 10° 18:02:19 10° 99° (E) 5,545 11.4 36.8°
Sets 18:07:59 0° 96° (E) 7,128 11.8 36.5°
